When you browse on this site, cookies collect data to enhance your experience and personalize the content and advertising you see.
Visit our Privacy Policy to learn more. By continuing to use the site, you agree to this use of cookies and data.
  • în România
  • Lista ţărilor
  • Pe 7 zile
  • Temperatura apei
  • Hartă satelitară
  • Meteo pe hartă
  • Widget-uri
  • user-avatar
    Intrare

    Meteo pe oră la Miskolc

    Astăzi, 20 Ianuarie, Duminică

    Timp Temperatura Precipitaţii Vânt Presiune Umiditate
    00:00 -3°C° 0 mm 2 m/s 750 mmHg 69%
    01:00 -3°C° 0 mm 2 m/s 750 mmHg 68%
    02:00 -3°C° 0 mm 2 m/s 749 mmHg 68%
    03:00 -3°C° 0 mm 2 m/s 749 mmHg 68%
    04:00 -3°C° 0 mm 2 m/s 749 mmHg 68%
    05:00 -3°C° 0.1 mm 2 m/s 749 mmHg 71%
    06:00 -3°C° 0.1 mm 2 m/s 748 mmHg 74%
    07:00 -1°C° 0 mm 1 m/s 748 mmHg 78%
    08:00 -1°C° 0.4 mm 1 m/s 748 mmHg 80%
    09:00 -1°C° 0.4 mm 1 m/s 748 mmHg 82%
    10:00 -1°C° 0.4 mm 1 m/s 748 mmHg 85%
    11:00 0°C° 0.3 mm 1 m/s 748 mmHg 84%
    12:00 0°C° 0.3 mm 1 m/s 748 mmHg 84%
    13:00 0°C° 0 mm 1 m/s 747 mmHg 86%
    14:00 0°C° 0.2 mm 1 m/s 747 mmHg 87%
    15:00 0°C° 0.2 mm 1 m/s 747 mmHg 87%
    16:00 0°C° 0.2 mm 1 m/s 747 mmHg 88%
    17:00 0°C° 0.1 mm 1 m/s 748 mmHg 88%
    18:00 0°C° 0.1 mm 1 m/s 748 mmHg 88%
    19:00 0°C° 0.1 mm 1 m/s 748 mmHg 88%
    20:00 0°C° 0 mm 1 m/s 749 mmHg 86%
    21:00 0°C° 0 mm 1 m/s 749 mmHg 84%
    22:00 0°C° 0 mm 1 m/s 749 mmHg 82%
    23:00 -1°C° 0 mm 1 m/s 750 mmHg 80%

    Mâine, 21 Ianuarie, Luni

    Timp Temperatura Precipitaţii Vânt Presiune Umiditate
    00:00 -1°C° 0 mm 1 m/s 750 mmHg 79%
    01:00 -1°C° 0 mm 1 m/s 750 mmHg 78%
    02:00 -2°C° 0 mm 1 m/s 750 mmHg 76%
    03:00 -2°C° 0 mm 1 m/s 751 mmHg 74%
    04:00 -2°C° 0 mm 1 m/s 751 mmHg 72%
    05:00 -3°C° 0 mm 1 m/s 751 mmHg 70%
    06:00 -3°C° 0 mm 1 m/s 751 mmHg 69%
    07:00 -3°C° 0 mm 1 m/s 751 mmHg 68%
    08:00 -4°C° 0 mm 2 m/s 752 mmHg 64%
    09:00 -3°C° 0 mm 2 m/s 752 mmHg 59%
    10:00 -2°C° 0 mm 2 m/s 752 mmHg 55%
    11:00 -2°C° 0 mm 2 m/s 752 mmHg 55%
    12:00 -1°C° 0 mm 2 m/s 752 mmHg 54%
    13:00 +1°C° 0 mm 2 m/s 752 mmHg 54%
    14:00 -1°C° 0 mm 2 m/s 752 mmHg 59%
    15:00 0°C° 0 mm 1 m/s 752 mmHg 65%
    16:00 -1°C° 0 mm 1 m/s 752 mmHg 70%
    17:00 -1°C° 0 mm 1 m/s 752 mmHg 73%
    18:00 -1°C° 0 mm 1 m/s 752 mmHg 77%
    19:00 -2°C° 0 mm 1 m/s 752 mmHg 80%
    20:00 -2°C° 0 mm 1 m/s 752 mmHg 81%
    21:00 -2°C° 0 mm 1 m/s 752 mmHg 83%
    22:00 -2°C° 0 mm 1 m/s 751 mmHg 84%
    23:00 -3°C° 0 mm 1 m/s 751 mmHg 85%

    Poimâine, 22 Ianuarie, Marţi

    Timp Temperatura Precipitaţii Vânt Presiune Umiditate
    00:00 -3°C° 0 mm 1 m/s 751 mmHg 86%
    01:00 -3°C° 0 mm 1 m/s 751 mmHg 87%
    02:00 -3°C° 0 mm 1 m/s 751 mmHg 88%
    03:00 -3°C° 0 mm 1 m/s 750 mmHg 90%
    04:00 -4°C° 0 mm 1 m/s 750 mmHg 91%
    05:00 -4°C° 0 mm 1 m/s 749 mmHg 91%
    06:00 -4°C° 0 mm 1 m/s 749 mmHg 92%
    07:00 -4°C° 0 mm 1 m/s 749 mmHg 92%
    08:00 -3°C° 0 mm 1 m/s 749 mmHg 89%
    09:00 -2°C° 0 mm 1 m/s 749 mmHg 86%
    10:00 -2°C° 0 mm 1 m/s 748 mmHg 83%
    11:00 -1°C° 0 mm 1 m/s 748 mmHg 81%
    12:00 -3°C° 0 mm 2 m/s 747 mmHg 79%
    13:00 -2°C° 0 mm 2 m/s 746 mmHg 78%
    14:00 -2°C° 0 mm 2 m/s 746 mmHg 80%
    15:00 -3°C° 0 mm 2 m/s 745 mmHg 83%
    16:00 -3°C° 0 mm 2 m/s 745 mmHg 86%
    17:00 -3°C° 0 mm 2 m/s 744 mmHg 88%
    18:00 -3°C° 0 mm 2 m/s 744 mmHg 90%
    19:00 -4°C° 0 mm 2 m/s 743 mmHg 92%
    20:00 -3°C° 0.2 mm 2 m/s 743 mmHg 92%
    21:00 -3°C° 0.2 mm 2 m/s 742 mmHg 92%
    22:00 -3°C° 0.2 mm 2 m/s 742 mmHg 91%
    23:00 -3°C° 0.1 mm 2 m/s 741 mmHg 91%

    23 Ianuarie, Miercuri

    Timp Temperatura Precipitaţii Vânt Presiune Umiditate
    00:00 -3°C° 0.1 mm 2 m/s 741 mmHg 91%
    01:00 -4°C° 0.1 mm 3 m/s 740 mmHg 91%
    02:00 -4°C° 0.1 mm 3 m/s 740 mmHg 91%
    03:00 -4°C° 0.1 mm 3 m/s 739 mmHg 91%
    04:00 -4°C° 0.1 mm 3 m/s 738 mmHg 90%
    05:00 -4°C° 0.1 mm 3 m/s 738 mmHg 90%
    06:00 -4°C° 0.1 mm 3 m/s 738 mmHg 90%
    07:00 -4°C° 0.1 mm 3 m/s 737 mmHg 89%
    08:00 -2°C° 0.2 mm 3 m/s 737 mmHg 89%
    09:00 -1°C° 0.2 mm 3 m/s 737 mmHg 88%
    10:00 -1°C° 0.2 mm 3 m/s 737 mmHg 87%
    11:00 0°C° 0.2 mm 3 m/s 736 mmHg 87%
    12:00 0°C° 0.2 mm 3 m/s 736 mmHg 87%
    13:00 +1°C° 0.2 mm 3 m/s 736 mmHg 87%
    14:00 +1°C° 0.2 mm 3 m/s 736 mmHg 88%
    15:00 +1°C° 0.2 mm 2 m/s 736 mmHg 90%
    16:00 +1°C° 0.2 mm 2 m/s 736 mmHg 92%
    17:00 +1°C° 0.3 mm 2 m/s 736 mmHg 92%
    18:00 +1°C° 0.3 mm 2 m/s 737 mmHg 93%
    19:00 +1°C° 0.3 mm 2 m/s 737 mmHg 93%
    20:00 +1°C° 0.2 mm 2 m/s 738 mmHg 94%
    21:00 +1°C° 0.2 mm 2 m/s 738 mmHg 94%
    22:00 +1°C° 0.2 mm 2 m/s 738 mmHg 95%
    23:00 +1°C° 0.1 mm 2 m/s 739 mmHg 95%

    24 Ianuarie, Joi

    Timp Temperatura Precipitaţii Vânt Presiune Umiditate
    00:00 +1°C° 0.1 mm 1 m/s 739 mmHg 95%
    01:00 +1°C° 0.1 mm 1 m/s 739 mmHg 95%
    02:00 +1°C° 0 mm 1 m/s 739 mmHg 95%
    03:00 +1°C° 0 mm 1 m/s 739 mmHg 95%
    04:00 +1°C° 0 mm 1 m/s 740 mmHg 95%
    05:00 +1°C° 0 mm 1 m/s 740 mmHg 95%
    06:00 +1°C° 0 mm 1 m/s 740 mmHg 94%
    07:00 +1°C° 0 mm 1 m/s 741 mmHg 94%
    08:00 +2°C° 0 mm 1 m/s 741 mmHg 94%
    09:00 +2°C° 0 mm 1 m/s 741 mmHg 93%
    10:00 +3°C° 0 mm 1 m/s 741 mmHg 93%
    11:00 +3°C° 0 mm 1 m/s 741 mmHg 91%
    12:00 +3°C° 0 mm 2 m/s 741 mmHg 90%
    13:00 +3°C° 0 mm 2 m/s 741 mmHg 89%
    14:00 +3°C° 0 mm 2 m/s 741 mmHg 90%
    15:00 +3°C° 0 mm 1 m/s 741 mmHg 91%
    16:00 +2°C° 0 mm 1 m/s 741 mmHg 93%
    17:00 +1°C° 0 mm 2 m/s 741 mmHg 92%
    18:00 +1°C° 0 mm 2 m/s 741 mmHg 92%
    19:00 -1°C° 0 mm 2 m/s 741 mmHg 91%
    20:00 -1°C° 0 mm 2 m/s 742 mmHg 91%
    21:00 -1°C° 0 mm 2 m/s 742 mmHg 90%
    22:00 -1°C° 0 mm 3 m/s 742 mmHg 90%
    23:00 -1°C° 0 mm 2 m/s 742 mmHg 89%

    25 Ianuarie, Vineri

    Timp Temperatura Precipitaţii Vânt Presiune Umiditate
    00:00 -1°C° 0 mm 2 m/s 742 mmHg 89%
    01:00 -2°C° 0 mm 2 m/s 742 mmHg 88%
    02:00 -1°C° 0 mm 2 m/s 742 mmHg 87%
    03:00 -1°C° 0 mm 2 m/s 742 mmHg 86%
    04:00 -1°C° 0 mm 2 m/s 741 mmHg 85%
    05:00 -1°C° 0 mm 2 m/s 742 mmHg 85%
    06:00 -1°C° 0 mm 2 m/s 742 mmHg 84%
    07:00 -1°C° 0 mm 2 m/s 742 mmHg 83%
    08:00 0°C° 0.1 mm 3 m/s 742 mmHg 82%
    09:00 0°C° 0.1 mm 3 m/s 742 mmHg 80%
    10:00 +1°C° 0.1 mm 3 m/s 742 mmHg 79%
    11:00 0°C° 0.1 mm 4 m/s 742 mmHg 78%
    12:00 0°C° 0.1 mm 4 m/s 742 mmHg 78%
    13:00 0°C° 0.1 mm 4 m/s 742 mmHg 77%
    14:00 0°C° 0.1 mm 4 m/s 742 mmHg 78%
    15:00 0°C° 0.1 mm 4 m/s 742 mmHg 79%
    16:00 0°C° 0.1 mm 4 m/s 742 mmHg 79%
    17:00 -1°C° 0.1 mm 4 m/s 742 mmHg 79%
    18:00 -1°C° 0.1 mm 4 m/s 742 mmHg 79%
    19:00 -1°C° 0.1 mm 4 m/s 742 mmHg 79%
    20:00 -1°C° 0.1 mm 4 m/s 742 mmHg 79%
    21:00 -2°C° 0.1 mm 4 m/s 742 mmHg 78%
    22:00 -2°C° 0.1 mm 4 m/s 743 mmHg 78%
    23:00 -2°C° 0.1 mm 4 m/s 743 mmHg 77%
    Arată mai mult